FW1075 Weather Reports


Display with metric or nautical units.
time (UTC)temp
F
wind
direction
speed
MPH
gust
MPH
rain 1hr
in
rain 24hr
in
rain mn
in
humidity
%
barometer
mb
20260510185122 71 232 3.0 5.0 0.00 0.14 0.00 79 1011.2
20260510184122 72 259 3.0 5.0 0.00 0.14 0.00 77 1011.2
20260510183143 73 270 3.0 6.0 0.00 0.16 0.00 74 1011.2
20260510182143 74 219 3.0 6.0 0.00 0.16 0.00 73 1011.1
20260510181122 76 238 4.0 6.0 0.00 0.17 0.00 70 1011.0
20260510180143 75 222 3.0 5.0 0.00 0.17 0.00 70 1011.0
20260510175122 75 265 3.0 6.0 0.00 0.18 0.00 70 1011.1
20260510174122 74 319 2.0 4.0 0.00 0.19 0.00 72 1011.1
20260510172124 73 224 2.0 6.0 0.00 0.20 0.00 73 1011.1
20260510171121 72 198 2.0 4.0 0.00 0.21 0.00 77 1011.2
20260510170142 70 187 3.0 6.0 0.00 0.22 0.00 79 1011.2
20260510165121 69 126 3.0 4.0 0.00 0.22 0.00 81 1011.4
20260510164122 69 255 3.0 5.0 0.00 0.22 0.00 82 1011.6
20260510163121 68 186 3.0 6.0 0.00 0.22 0.00 83 1011.4
20260510162124 66 193 2.0 4.0 0.00 0.22 0.00 88 1011.6
20260510161125 65 228 3.0 5.0 0.00 0.22 0.00 91 1011.7
20260510160127 65 209 2.0 4.0 0.00 0.22 0.00 89 1011.7
20260510155121 64 220 2.0 4.0 0.00 0.22 0.00 92 1011.7
20260510154142 63 181 2.0 4.0 0.00 0.22 0.00 96 1011.9
20260510153121 62 292 2.0 3.0 0.00 0.22 0.00 97 1012.1
20260510152123 61 284 2.0 4.0 0.00 0.22 0.00 99 1012.0
20260510151144 61 204 1.0 3.0 0.00 0.22 0.00 99 1011.9
20260510150124 60 248 2.0 4.0 0.00 0.22 0.00 99 1011.8
20260510145124 60 263 2.0 3.0 0.00 0.22 0.00 99 1011.8
20260510144122 59 266 2.0 3.0 0.00 0.22 0.00 99 1011.8
20260510143121 58 214 1.0 3.0 0.00 0.22 0.00 99 1011.9
20260510142122 58 273 2.0 4.0 0.00 0.22 0.00 99 1011.6
20260510141121 57 216 0.0 2.0 0.00 0.22 0.00 99 1011.5
20260510140122 56 226 2.0 3.0 0.00 0.22 0.00 99 1011.5
20260510135143 56 259 1.0 3.0 0.00 0.22 0.00 99 1011.8
20260510134125 56 114 0.0 2.0 0.00 0.22 0.00 99 1011.5
20260510133125 55 174 0.0 2.0 0.00 0.22 0.00 99 1011.4
20260510132121 55 134 1.0 2.0 0.00 0.22 0.00 99 1011.2
20260510131121 55 195 1.0 3.0 0.00 0.22 0.00 99 1011.5
20260510130121 54 236 2.0 3.0 0.00 0.22 0.00 99 1011.5
20260510125123 54 262 1.0 3.0 0.00 0.22 0.00 99 1011.4
20260510124121 54 269 0.0 2.0 0.00 0.22 0.00 99 1011.2
20260510123123 54 150 0.0 2.0 0.00 0.22 0.00 99 1011.2
20260510122121 54 262 1.0 3.0 0.00 0.22 0.00 99 1011.0
20260510121121 53 145 2.0 3.0 0.00 0.22 0.00 99 1010.7
20260510120121 53 111 2.0 3.0 0.00 0.22 0.00 99 1010.6
20260510115121 53 108 2.0 3.0 0.00 0.22 0.00 99 1010.6
20260510114121 53 106 2.0 4.0 0.00 0.22 0.00 99 1010.5
20260510113122 53 121 2.0 4.0 0.00 0.22 0.00 99 1010.4
20260510112121 52 102 3.0 4.0 0.00 0.22 0.00 99 1010.2
20260510111142 52 102 2.0 4.0 0.00 0.22 0.00 99 1010.4
20260510110121 52 109 3.0 5.0 0.00 0.22 0.00 99 1010.4
20260510105142 52 83 1.0 4.0 0.00 0.22 0.00 99 1010.4
20260510104121 52 117 2.0 5.0 0.00 0.22 0.00 99 1010.2
20260510103121 51 84 2.0 5.0 0.00 0.22 0.00 99 1010.2
20260510102143 51 92 2.0 4.0 0.00 0.22 0.00 99 1010.2
20260510101122 51 61 2.0 3.0 0.00 0.22 0.00 99 1010.2
20260510100123 51 2 1.0 3.0 0.00 0.22 0.00 99 1010.2
20260510095122 51 30 3.0 6.0 0.00 0.22 0.00 99 1010.4
20260510094122 51 312 2.0 4.0 0.00 0.22 0.00 99 1010.6
20260510093144 51 24 2.0 5.0 0.00 0.22 0.00 99 1010.6
20260510092123 51 343 2.0 4.0 0.00 0.22 0.00 99 1010.6
20260510091122 52 323 2.0 6.0 0.00 0.22 0.00 99 1010.7
20260510090121 52 316 3.0 6.0 0.00 0.22 0.00 99 1010.7
20260510085122 52 53 1.0 3.0 0.00 0.22 0.00 99 1010.5
20260510084121 52 310 0.0 2.0 0.00 0.22 0.00 99 1009.8
20260510083121 52 113 0.0 2.0 0.00 0.22 0.00 99 1009.8
20260510082122 52 44 0.0 2.0 0.00 0.22 0.00 99 1009.9
20260510081123 52 61 1.0 3.0 0.00 0.22 0.00 99 1009.8
20260510080144 52 89 1.0 2.0 0.00 0.22 0.00 99 1009.8
20260510075122 52 111 1.0 3.0 0.00 0.22 0.00 99 1009.6
20260510074122 52 102 0.0 3.0 0.00 0.22 0.00 99 1009.7
20260510073121 52 293 1.0 3.0 0.00 0.22 0.00 99 1009.7
20260510072121 52 331 0.0 2.0 0.00 0.22 0.00 99 1009.6
20260510071121 52 355 1.0 3.0 0.00 0.22 0.00 99 1009.6
20260510070122 52 73 1.0 2.0 0.00 0.22 0.00 99 1009.6
20260510065123 52 90 0.0 2.0 0.00 0.22 0.00 99 1009.4
20260510064123 52 144 0.0 3.0 0.00 0.22 0.00 99 1009.2
20260510063145 52 110 1.0 2.0 0.00 0.22 0.00 99 1009.2
20260510062122 52 90 1.0 2.0 0.00 0.22 0.00 99 1009.2
20260510061124 52 90 0.0 1.0 0.00 0.22 0.00 99 1009.2
20260510060123 52 23 0.0 3.0 0.00 0.22 0.00 99 1009.2
20260510055122 52 69 1.0 3.0 0.00 0.22 0.00 99 1009.4
20260510054122 52 80 1.0 2.0 0.00 0.22 0.00 99 1009.4
20260510053124 52 97 0.0 2.0 0.00 0.22 0.00 99 1009.5
20260510052121 52 58 0.0 2.0 0.00 0.22 0.00 99 1009.6
20260510051121 52 105 0.0 2.0 0.00 0.22 0.00 99 1009.8
20260510050121 52 180 0.0 0.0 0.00 0.22 0.00 99 1009.8
20260510045121 52 113 0.0 2.0 0.00 0.22 0.00 99 1009.7
20260510044121 52 113 0.0 2.0 0.00 0.22 0.00 99 1009.7
20260510043121 52 86 1.0 3.0 0.00 0.22 0.00 99 1009.7
20260510042122 52 110 1.0 3.0 0.00 0.22 0.00 99 1009.6
20260510041122 52 100 0.0 2.0 0.00 0.22 0.00 99 1009.5
20260510040127 52 206 1.0 3.0 0.00 0.22 0.00 99 1009.5
20260510035127 52 113 1.0 3.0 0.00 0.22 0.22 99 1009.2
20260510034121 53 102 2.0 3.0 0.00 0.22 0.22 99 1009.2
20260510033122 53 123 2.0 2.0 0.00 0.22 0.22 99 1009.2
20260510032121 53 113 0.0 1.0 0.00 0.22 0.22 99 1009.2
20260510031121 53 114 1.0 3.0 0.00 0.22 0.22 99 1009.2
20260510030121 53 99 2.0 3.0 0.00 0.22 0.22 99 1009.2
20260510025122 53 96 1.0 3.0 0.00 0.22 0.22 99 1009.2
20260510024122 53 127 1.0 2.0 0.00 0.22 0.22 99 1009.4
20260510023122 53 172 1.0 3.0 0.00 0.22 0.22 99 1009.2
20260510022122 53 103 3.0 4.0 0.00 0.22 0.22 99 1009.4
20260510021128 53 142 1.0 3.0 0.00 0.22 0.22 99 1009.2
20260510020122 53 207 1.0 2.0 0.00 0.22 0.22 99 1009.2
20260510015122 53 128 2.0 3.0 0.00 0.22 0.22 99 1009.2
20260510014122 53 139 1.0 4.0 0.00 0.22 0.22 99 1009.2
20260510013143 53 129 2.0 4.0 0.00 0.22 0.22 99 1009.1
20260510012124 53 130 1.0 3.0 0.00 0.22 0.22 99 1009.0
20260510011145 53 112 1.0 3.0 0.00 0.22 0.22 99 1009.0
20260510010122 52 113 0.0 0.0 0.00 0.22 0.22 99 1009.0
20260510005123 52 45 0.0 0.0 0.01 0.22 0.22 99 1008.9
20260510004121 53 113 0.0 0.0 0.01 0.22 0.22 99 1008.9
20260510003142 54 180 0.0 0.0 0.01 0.22 0.22 99 1008.8
20260510002121 54 248 0.0 0.0 0.01 0.22 0.22 99 1008.6
20260510001124 55 180 0.0 0.0 0.01 0.22 0.22 99 1008.4
20260510000124 55 117 1.0 3.0 0.01 0.22 0.22 99 1008.4
20260509235121 55 97 2.0 5.0 0.01 0.21 0.21 99 1008.2
20260509234123 56 114 0.0 2.0 0.04 0.21 0.21 99 1008.5
20260509233144 56 71 1.0 3.0 0.04 0.21 0.21 99 1008.2
20260509232144 56 95 1.0 3.0 0.05 0.21 0.21 99 1008.4
20260509231121 56 121 1.0 3.0 0.10 0.21 0.21 99 1008.8
20260509230121 56 8 2.0 4.0 0.10 0.21 0.21 99 1009.0
20260509225125 56 164 2.0 4.0 0.09 0.20 0.20 99 1009.0
20260509224144 57 208 2.0 4.0 0.06 0.17 0.17 99 1009.2
20260509223121 57 134 2.0 4.0 0.06 0.17 0.17 99 1009.0
20260509222143 57 97 2.0 5.0 0.05 0.16 0.16 99 1009.8
20260509221146 58 230 1.0 2.0 0.00 0.11 0.11 99 1008.8
20260509220121 57 104 2.0 4.0 0.00 0.11 0.11 99 1008.8
20260509215143 57 193 1.0 2.0 0.00 0.11 0.11 99 1009.4
20260509214128 57 186 1.0 3.0 0.00 0.11 0.11 99 1009.2
20260509213122 57 156 1.0 3.0 0.00 0.11 0.11 99 1009.2
20260509212122 57 113 2.0 3.0 0.00 0.11 0.11 99 1009.4
20260509211121 57 143 1.0 4.0 0.01 0.11 0.11 99 1009.2
20260509210121 57 179 2.0 3.0 0.01 0.11 0.11 99 1009.2
20260509205123 57 245 3.0 5.0 0.01 0.11 0.11 99 1009.4
20260509204142 57 224 2.0 5.0 0.01 0.11 0.11 99 1009.4
20260509203142 57 247 3.0 6.0 0.01 0.11 0.11 99 1009.2
20260509202123 57 245 4.0 8.0 0.01 0.11 0.11 99 1009.4
20260509201142 57 232 3.0 6.0 0.00 0.10 0.10 99 1009.2
20260509200146 58 201 3.0 5.0 0.00 0.10 0.10 99 1009.2
20260509195122 58 254 4.0 7.0 0.02 0.10 0.10 99 1009.2
20260509194143 58 194 3.0 5.0 0.02 0.10 0.10 99 1009.5
20260509193121 57 252 3.0 7.0 0.04 0.10 0.10 99 1009.5
20260509192121 57 236 2.0 4.0 0.04 0.10 0.10 99 1009.4
20260509191142 57 126 2.0 4.0 0.05 0.10 0.10 99 1009.6
20260509190121 57 228 2.0 5.0 0.05 0.10 0.10 99 1009.6